1st Responders/1st Detectors/Storm Spotters Weather Summary for Elliott County, KY

Forecast Maps


Reg. NEXRAD Animation


National Fire Danger: Day 1 & 2 Map

Current NWS Watch/Warnings

SPC Convective Day 1 Outlook


Day 2 Outlook

(Click images to enlarge|Page will refresh every 5 minutes)
UK Ag. Weather Center Desktop Severe Weather Service[HERE]
Elliott County, KY Hazardous Weather Outlook Webcast
(9 AM to 9 PM Mon-Fri)
[Fast]
[Dial-up]


UKAWC 1st Detectors/1st Responders Precision Weather Forecast For ELLIOTT County, Kentucky
(based on the NWS County Digital Forecast)

ISSUED AT 02:00 UTC ON TUESDAY JUN 19 2018
DAY MON TUESDAY
EDT 3HR 11P MIDN 1A 2A 3A 4A 5A 6A 7A 8A 9A 10A 11A NOON 1P 2P 3P 4P 5P 6P 7P
MAX/MIN -- -- -- -- -- -- -- -- -- 70° -- -- -- -- -- -- -- -- -- -- 88°
TEMP 77° 76° 74° 74° 72° 72° 72° 70° 70° 72° 76° 79° 83° 85° 86° 88° 88° 88° 88° 85° 83°
SKY COVER 7% 10% 14% 18% 20% 22% 25% 30% 35% 41% 43% 45% 48% 47% 47% 46% 48% 51% 53% 52% 52%
Clouds
DEW PT 70° 70° 70° 70° 70° 70° 72° 70° 70° 72° 72° 72° 72° 70° 70° 70° 70° 70° 70° 70° 70°
RH 78% 84% 87% 90% 93% 96% 100% 100% 99% 96% 87% 78% 69% 63% 59% 57% 55% 55% 56% 60% 66%
POP 12HR -- -- -- -- -- -- -- -- -- 10% -- -- -- -- -- -- -- -- -- -- --
RAIN/SNOW (liq.equ) -- -- -- 0.00in -- -- -- -- -- 0.00in -- -- -- -- -- 0.01in -- -- -- -- --
SNOWFALL -- -- -- 0in -- -- -- -- -- 0in -- -- -- -- -- 0in -- -- -- -- --
WIND SPEED(MPH) 2 2 2 2 2 2 2 2 5 5 5 6 6 6 6 6 6 7 7 6 6
WIND Gust(MPH) 6 6 6 7 6 6 6 6 6 6 7 9 10 10 10 10 10 10 10 9 8
WIND DIR W W W W W W W W W W W W W W W W W W W W W
DEW Lgt Dew Lgt Dew Mod Dew Mod Dew Mod Dew Mod Dew Mod Dew Mod Dew Lgt Dew Lgt Dew Lgt Dew -- -- -- -- -- -- -- -- -- --
HeatIndex 77 76 74 74 72 72 72 70 70 72 76 79 88 90 92 94 95 95 94 91 87
Rain Showers -- -- -- -- -- -- -- -- -- -- -- -- Slight Chance Slight Chance Slight Chance Slight Chance Chance Chance Chance Chance Chance
Thunder Storm -- -- -- -- -- -- -- -- -- -- -- -- Slight Chance Slight Chance Slight Chance Slight Chance Chance Chance Chance Chance Chance
WIND CHILL -- -- -- -- -- -- -- -- -- -- -- -- -- -- -- -- -- -- -- -- --
SPRAY COND
DRY COND
LIVESTOCK HEATSTRESS 74.80 74.49 72.91 73.16 71.49 71.71 72.00 70.00 69.94 71.71 74.77 76.56 78.87 79.67 79.87 81.09 80.77 80.77 80.93 79.24 78.47



DAY WEDNESDAY THURSDAY FRIDAY SATURDAY SUNDAY MONDAY
EDT 6HR 8P 9P 10P 11P MIDN 1A 2A 3A 4A 5A 6A 7A 8A 9A 10A 11A 2P 5P 8P 11P 2A 5A 8A 11A 2P 5P 8P 2A 8A 2P 8P 2A 8A 2P 8P 2A 8A 2P 8P 2A 8A 2P 8P
MAX/MIN -- -- -- -- -- -- -- -- -- -- -- -- 68° -- -- -- -- 85° -- -- -- -- 68° -- -- 81° -- -- 67° 81° -- -- 67° 83° -- -- 67° 85° -- -- 67° 83° --
TEMP 79° 76° 74° 72° 70° 70° 70° 70° 70° 68° 68° 68° 70° 74° 76° 81° 85° 85° 79° 72° 68° 68° 70° 76° 81° 79° 74° 68° 67° 81° 77° 67° 68° 83° 79° 67° 70° 85° 79° 70° 70° 83° 76°
SKY COVER 51% 51% 50% 49% 49% 48% 47% 49% 51% 52% 54% 55% 62% 66% 65% 64% 65% 62% 71% 85% 81% 84% 88% 91% 90% 91% 88% 83% 85% 80% 81% 70% 75% 63% 54% 47% 62% 65% 61% 56% 70% 68% 59%
Clouds
DEW PT 70° 70° 70° 70° 70° 70° 70° 70° 70° 68° 68° 68° 70° 70° 68° 68° 70° 70° 70° 70° 68° 67° 67° 68° 70° 70° 70° 67° 67° 70° 70° 67° 67° 67° 68° 65° 67° 70° 70° 68° 67° 70° 70°
RH 76% 84% 89% 97% 97% 96% 96% 100% 100% 100% 100% 99% 96% 87% 76% 67% 58% 60% 73% 93% 100% 96% 93% 78% 71% 76% 86% 92% 96% 69% 78% 100% 96% 58% 68% 92% 93% 61% 73% 96% 93% 65% 78%
POP 12HR 36% -- -- -- -- -- -- -- -- -- -- -- 34% -- -- -- -- -- 50% -- -- -- 62% -- -- -- 65% -- 56% -- 56% -- 53% -- 39% -- 24% -- 31% -- 43% -- 47%
RAIN/SNOW (liq.equ) 0.05in -- -- -- -- -- 0.05in -- -- -- -- -- 0.01in -- -- -- 0.01in -- 0.02in -- 0.19in -- 0.07in -- 0.14in -- 0.22in -- -- -- -- -- -- -- -- -- -- -- -- -- -- -- --
SNOWFALL 0in -- -- -- -- -- 0in -- -- -- -- -- 0in -- -- -- 0in -- 0in -- 0in -- 0in -- 0in -- 0in -- -- -- -- -- -- -- -- -- -- -- -- -- -- -- --
WIND SPEED(MPH) 5 5 2 2 2 2 2 2 2 2 2 5 5 5 6 6 7 7 5 2 2 2 2 2 2 2 1 1 2 5 2 5 6 8 7 5 5 7 5 2 2 5 2
WIND DIR W W W SW SW SW SW SW SW W SW SW SW SW W W W W W W W W W NW N E E S S S S S SW SW SW SW SW SW W SW W NW NE
HeatIndex 79 76 74 72 70 70 70 70 70 68 68 68 70 74 76 84 90 89 83 72 68 68 70 76 85 79 74 68 67 86 77 67 68 87 82 67 70 89 83 70 70 87 76
Rain Showers Chance Chance Chance Chance Slight Chance Slight Chance Slight Chance Slight Chance Slight Chance Slight Chance Slight Chance -- Slight Chance Slight Chance Chance Chance Chance Chance Chance Likely Chance Chance Chance Likely Likely Likely Likely Chance Chance Chance Chance Chance Chance Chance Slight Chance Slight Chance Slight Chance Slight Chance Chance Chance Chance Chance Slight Chance
Thunder Storm Chance Chance Chance Chance Slight Chance Slight Chance Slight Chance Slight Chance Slight Chance Slight Chance Slight Chance -- -- -- -- -- Slight Chance Chance Chance Slight Chance -- -- -- Chance Chance Chance Slight Chance -- Chance Chance Chance -- Slight Chance Chance Slight Chance -- Slight Chance Slight Chance Slight Chance Slight Chance Slight Chance Chance --
WIND CHILL -- -- -- -- -- -- -- -- -- -- -- -- -- -- -- -- -- -- -- -- -- -- -- -- -- -- -- -- -- -- -- -- -- -- -- -- -- -- -- -- -- -- --
SPRAY COND
DRY COND
LIVESTOCK HEATSTRESS 76.33 74.49 73.08 71.78 69.82 69.75 69.75 70.00 70.00 68.00 68.00 67.95 69.75 72.91 73.73 76.97 78.95 79.24 76.00 71.49 68.00 67.80 69.57 73.92 77.46 76.33 72.83 67.60 66.82 77.21 74.80 67.00 67.80 77.41 75.44 66.64 69.57 79.38 76.00 69.75 69.57 78.34 73.92

Click on individual weather variable above in left-hand column (ie., TEMP, RH, QPF 12HR) to view state forecast maps






NWS 48 Hr. Forecast Maps,

Regional Hourly Observations For ELLIOTT County, Kentucky
Issued at 1000 PM EDT MON JUN 18 2018
NORTHEAST KENTUCKY
  
CITY           SKY/WX    TMP DP  RH WIND       PRES   REMARKS
LEXINGTON      FAIR      79  69  71 SW6       30.05R                  
COVINGTON      FAIR      83  71  67 SW5       30.01R                  
FRANKFORT      FAIR      79  69  71 SW7       30.03R                  


Current NOWCAST not available:
Nowcasts are not issued routinely during fair weather. Only when
precipitation or other significant weather is occuring in this county will these
forecasts be issued. Currently, there is no short term forecast in effect.


Fire Weather Forecast For ELLIOTT County, KY
Provided by the National Weather Service:

Issued at: Mon Jun 18 22:05:02 EDT 2018

Clay City, Stanton, Frenchburg, Brodhead, Mount Vernon, McKee, 
Annville, Burnside, Somerset, London, Monticello, Stearns, 
Whitley City, Corbin, Williamsburg, Barbourville, Middlesboro, 
Pineville, Cumberland, Harlan, Sandy Hook, West Liberty, 
Paintsville, Campton, Salyersville, Prestonsburg, Wheelwright, 
Beattyville, Jackson, Hindman, Pippa Passes, Booneville, Hazard, 
Manchester, Hyden, Jenkins, Whitesburg, Inez, Coal Run, 
Elkhorn City, Pikeville, and South Williamson
700 AM EDT Mon Jun 18 2018

                      Today        Tonight      Tue          

Cloud Cover           MClear       MClear       PCldy        
Chance precip (%)     20           0            40           
Precip type           tstms        None         tstms        
Temp (24H TREND)      89-92 (+1)   64-73 (+5)   87-90        
Rh % (24H TREND)      46-49 (+5)   90-100 (+2)  49-52        
20ftwnd-AM(mph)       Lgt/Var                   Lgt/Var      
20ftwnd-PM(mph)       W 2-6        Lgt/Var      W 3-7        
Precip duration       1                         1            
Precip begin                                                 
Precip end                                                   
Precip amount         0.00         0.00         0.07         
LAL                   3            1            3            
Haines Index (MID)    3                         3            
Mixing hgt(ft-AGL)    6700                      6600         
Transport wnd (mph)   W  6                      W 13         
Vent rate (kt-ft)     33133                     71438        
ADI Early             32 Fair      4 Very Poor  59 Gen Good  
ADI Late              48 Gen Good  11 Poor      65 Good      
Max LVORI Early       6            7            5            
Max LVORI Late        3            8            3            

REMARKS...RANGES OF MIN T EXCEEDING 8 DEGREES & RANGES OF MAX RH        
EXCEEDING 10% INDICATE THE LIKELIHOOD OF THERMAL BELTS. ADI IS        
ATMOSPHERIC DISPERSION INDEX BY LAVDAS. DISPERSION INDEX IS        
MAGNITUDE OF VENT RATE DIVIDED BY 1000.

SPC's Fire Weather Web Tool (Excellent!), SPC's Fire Weather Outlooks, NWS Fire Weather WEB, Fire Danger Class Map,
Keetch-Byram Drought Index, ROMAN Web, Haines Index ,
WFAS's 10-hr Dead Fuel Moist., WFAS's 100-hr Dead Fuel Moist., Probablity of Ignition, Visual blackness Map, Palmer Drought Index, HPC's Rainfall Forecast Maps


Hazardous Weather Outlook For ELLIOTT County, Kentucky
801 PM EDT Mon Jun 18 2018

 DAY ONE  Tonight.

No hazardous weather is expected.

 DAYS TWO THROUGH SEVEN  Tuesday through Sunday.

Thunderstorms will be possible from Tuesday through Sunday, 
especially during the afternoon and evening hours. 

 SPOTTER INFORMATION STATEMENT  

Spotter activation is not anticipated.

Latest ELLIOTT County, Kentucky Watches, Warnings and Advisories.
Additional Drought Info.: UKAWC Drought Page, Kentucky Drought Watch


7-Day Forecast For ELLIOTT County, KY

TONIGHT
Mostly clear. Areas of valley fog late. Lows in the lower 70s. Light winds.

TUESDAY
Warm. Mostly sunny. Areas of valley fog early. A slight chance of showers and thunderstorms late in the morning. A chance of showers and thunderstorms in the afternoon. Highs in the upper 80s. Light winds. Chance of rain 40 percent.

TUESDAY NIGHT
Partly cloudy with a chance of showers and thunderstorms in the evening, then mostly cloudy with a slight chance of showers and thunderstorms late. Areas of valley fog late. Lows around 70. Light winds. Chance of rain 40 percent.

WEDNESDAY
Partly sunny. A chance of showers in the morning, then a chance of showers and thunderstorms in the afternoon. Highs in the mid 80s. Light winds. Chance of rain 50 percent.

WEDNESDAY NIGHT
Mostly cloudy. Showers likely and a chance of thunderstorms in the evening, then a chance of showers late. Areas of valley fog through the night. Lows in the upper 60s. Light winds. Chance of rain 60 percent.

THURSDAY
Cloudy with showers likely and a chance of thunderstorms. Highs in the lower 80s. Chance of rain 70 percent.

THURSDAY NIGHT
Mostly cloudy with showers likely and a slight chance of thunderstorms. Areas of valley fog. Lows in the mid 60s. Chance of rain 60 percent.

FRIDAY
Mostly cloudy with showers likely and a chance of thunderstorms. Highs in the lower 80s. Chance of rain 60 percent.

FRIDAY NIGHT
Mostly cloudy with a 50 percent chance of showers and thunderstorms. Areas of valley fog. Lows in the upper 60s.

SATURDAY
Partly sunny with a 40 percent chance of showers and thunderstorms. Highs in the mid 80s.

SATURDAY NIGHT
Mostly cloudy with a chance of showers and a slight chance of thunderstorms. Areas of valley fog. Lows in the upper 60s. Chance of rain 30 percent.

SUNDAY
Partly sunny with a 30 percent chance of showers and thunderstorms. Highs in the mid 80s.

SUNDAY NIGHT
Mostly cloudy with a chance of showers and a slight chance of thunderstorms. Areas of valley fog. Lows in the upper 60s. Chance of rain 40 percent.

MONDAY
Partly sunny with a 50 percent chance of showers and thunderstorms. Highs in the mid 80s.

Ag Weather Center, Department of Biosystems & Agricultural Engineering, University of Kentucky